Regional Weather Roundup
Issued by NWS

Home | Current Version | Previous Version | Graphics & Text | Print | Product List | Glossary Off
Versions: 1 2 3 4 5 6 7 8 9 10 11 12 13 14 15 16 17 18 19 20 21 22 23 24 25 26 27 28 29 30 31 32 33 34 35 36 37 38 39 40 41 42 43 44 45 46 47 48 49 50

000
ASUS43 KFSD 260002
RWRSD

WEATHER ROUNDUP FOR SOUTH DAKOTA
NATIONAL WEATHER SERVICE SIOUX FALLS SD
700 PM CDT TUE APR 25 2017

NOTE: "FAIR" INDICATES FEW OR NO CLOUDS BELOW 12,000 FEET WITH NO
SIGNIFICANT WEATHER AND/OR OBSTRUCTIONS TO VISIBILITY.


SDZ001>005-009-010-012>017-260100-
NORTHWEST AND NORTH CENTRAL SOUTH DAKOTA

CITY           SKY/WX    TMP DP  RH WIND       PRES   REMARKS
BUFFALO          N/A     29  25  85 NE13      29.82R WCI  19
FAITH            N/A     29  27  92 N20       29.84R WCI  16
MOBRIDGE       CLOUDY    34  24  67 N20       29.81S WCI  23
$$

SDZ012>016-024>037-041>051-057-063-072>074-260100-
SOUTHWEST AND SOUTH CENTRAL SOUTH DAKOTA

CITY           SKY/WX    TMP DP  RH WIND       PRES   REMARKS
RAPID CTY ARPT FLURRIES  28  24  85 N21       29.83R WCI  15
PIERRE         LGT SNOW  32  30  92 N16       29.80R FOG     WCI  21
CUSTER         FLURRIES  27  21  78 NW7       29.73R WCI  19
ELLSWORTH AFB  CLOUDY    28  28 100 N17       29.83  WCI  16
PHILIP         MIX PCPN  32  29  88 N13       29.85R WCI  22
PINE RIDGE     LGT SNOW  32  28  85 N13       29.81R FOG     WCI  22
SPEARFISH      LGT SNOW  27  25  93 NW7       29.86R WCI  19
WINNER         FLURRIES  37  31  78 N21G26    29.77R
$$

SDZ004>011-016>023-039-040-260100-
NORTHEAST SOUTH DAKOTA

CITY           SKY/WX    TMP DP  RH WIND       PRES   REMARKS
ABERDEEN       CLOUDY    34  26  72 N20G29    29.79R WCI  23
WATERTOWN      CLOUDY    34  31  88 N21G29    29.69R WCI  22
BROOKINGS      CLOUDY    36  33  89 N18       29.66R
SISSETON         N/A     37  33  85 N23       29.72R
$$

SDZ017-020-022-023-036>040-048>070-260100-
SOUTHEAST SOUTH DAKOTA

CITY           SKY/WX    TMP DP  RH WIND       PRES   REMARKS
SIOUX FALLS    LGT RAIN  39  39 100 N13       29.66R FOG
HURON          CLOUDY    35  32  88 N20G25    29.75R WCI  24
CHAMBERLAIN    CLOUDY    38  33  81 NW18G25   29.76R
MITCHELL       LGT RAIN  36  34  92 N22       29.73R
YANKTON        CLOUDY    37  34  87 NW18G24   29.68R
$$

ABBREVIATIONS USED IN REMARKS
   TC - TEMPERATURE IN CELSIUS
  WCI - WIND CHILL INDEX
   HX - HEAT INDEX
  VSB - VISIBILITY





USA.gov is the U.S. government's official web portal to all federal, state and local government web resources and services.